Tracking 28790 objects as of 19-Apr-2024
HD Live streaming from Space Station
objects crossing your sky now

FENGYUN 1C DEB

Track FENGYUN 1C DEB now!
10-day predictions


NORAD ID: 29871
Int'l Code: 1999-025FR
Perigee: 732.6 km
Apogee: 828.1 km
Inclination: 98.9 °
Period: 100.3 minutes
Semi major axis: 7151 km
RCS: 0.051 m2 (small)
Launch date: May 10, 1999
Source: People's Republic of China (PRC)
Launch site: Taiyaun Space Center, China (TSC)

Note: This is SATELLITE DEBRIS
Your satellite tracking list
Your tracking list is empty




NASA's NSSDC Master Catalog

Two Line Element Set (TLE):
1 29871U 99025FR  24109.74267007  .00006375  00000-0  21717-2 0  9992
2 29871  98.9345  30.5448 0066772  88.6803 325.7273 14.35569085900264
Source of the keplerian elements: AFSPC